Location: *
(33.8649°S, 62.1526°E)
Time: 13:09:03
(UTC+00:00)

ERBS - Pass Details

Date: 17 January 2021
Orbit: 405 x 418 km, 57.0° (Epoch: 02 March)

Event Time Altitude Azimuth Distance (km) Brightness Sun altitude
Rises 15:29:03 0° 4° (N) 2,356 5.7 -5.3°
Reaches altitude 10° 15:32:08 10° 36° (NE) 1,507 4.5 -5.9°
Maximum altitude 15:33:33 12° 61° (ENE) 1,384 4.2 -6.2°
Drops below altitude 10° 15:35:00 10° 86° (E) 1,520 4.5 -6.4°
Sets 15:38:07 0° 117° (ESE) 2,399 5.8 -7.0°
